This demonstration page uses our WeatherBlox Daily Observations layout. Learn more.

Left ArrowRight Arrow

Hourly Observations for February 8, 2019

Temp ( °F °C ) Dew Point ( °F °C ) Humidity (%) Winds ( mph kmh ) Pressure ( in mb ) Visibility ( mi km ) Precip ( " mm )
12:30 am 00:30 Mostly Clear 68 20 61 16.1 78 78 SW 12 19 30.05 1018 10 16 0.00 0.00
12:53 am 00:53 Mostly Cloudy 68 20 62 16.7 81 81 SW 8 13 30.05 1018 10 16 0.00 0.00
1:53 am 01:53 Cloudy with Light Rain 66 18.9 63 17.2 90 90 SW 10 17 30.06 1018 8 13 0.00 0.03
2:18 am 02:18 Cloudy with Light Rain 63 17.2 61 16.1 93 93 WNW 17 28 30.10 1019 9 14 0.01 0.25
2:53 am 02:53 Cloudy with Light Rain 61 16.1 59 15 93 93 WNW 13 20 30.11 1020 10 16 0.01 0.25
3:22 am 03:22 Cloudy 60 15.6 59 15 96 96 WNW 10 17 30.13 1020 10 16 0.01 0.25
3:53 am 03:53 Cloudy with Light Rain 59 15 58 14.4 96 96 VRB 3 6 30.11 1020 10 16 0.01 0.25
4:11 am 04:11 Cloudy 59 15 58 14.4 96 96 W 3 6 30.14 1021 10 16 0.00 0.03
4:30 am 04:30 Cloudy with Light Rain 59 15 57 13.9 93 93 W 7 11 30.15 1021 10 16 0.00 0.03
4:38 am 04:38 Cloudy with Light Rain 59 15 57 13.9 93 93 Calm 30.15 1021 10 16 0.00 0.03
4:53 am 04:53 Cloudy with Light Rain 58 14.4 57 13.9 97 97 VRB 3 6 30.15 1021 10 16 0.00 0.03
5:12 am 05:12 Cloudy 58 14.4 56 13.3 93 93 W 9 15 30.17 1022 10 16 0.00 0.03
5:28 am 05:28 Cloudy 57 13.9 53 11.7 87 87 W 9 15 30.17 1022 10 16 0.00 0.03
5:53 am 05:53 Cloudy 56 13.3 52 11.1 87 87 WNW 6 9 30.16 1021 10 16 0.00 0.03
6:12 am 06:12 Cloudy 55 12.8 50 10 83 83 WNW 13 20 30.21 1023 10 16 0.00 0.00
6:53 am 06:53 Cloudy 53 11.7 47 8.3 80 80 NW 12 19 30.22 1023 10 16 0.00 0.00
7:10 am 07:10 Cloudy 53 11.7 46 7.8 77 77 W 14 22 30.24 1024 10 16 0.00 0.00
7:53 am 07:53 Cloudy 52 11.1 45 7.2 77 77 WNW 13 20 30.26 1025 10 16 0.00 0.03
8:53 am 08:53 Mostly Cloudy 51 10.6 41 5 69 69 NW 10 17 30.29 1026 10 16 0.00 0.00
9:53 am 09:53 Sunny 51 10.6 39 3.9 64 64 NNW 15 24 30.32 1027 10 16 0.00 0.00
10:53 am 10:53 Sunny 52 11.1 38 3.3 59 59 NW 14 22 30.35 1028 10 16 0.00 0.00
11:53 am 11:53 Sunny 53 11.7 33 0.6 47 47 NW 17 28 30.36 1028 10 16 0.00 0.00
12:53 pm 12:53 Sunny 54 12.2 30 -1.1 40 40 NNW 16 26 30.35 1028 10 16 0.00 0.00
1:53 pm 13:53 Sunny 54 12.2 25 -3.9 33 33 NW 14 22 30.35 1028 10 16 0.00 0.00
2:53 pm 14:53 Sunny 52 11.1 21 -6.1 30 30 N 14 22 30.35 1028 10 16 0.00 0.00
3:53 pm 15:53 Sunny 52 11.1 19 -7.2 27 27 NNW 12 19 30.36 1028 10 16 0.00 0.00
4:53 pm 16:53 Sunny 50 10 20 -6.7 30 30 NW 13 20 30.37 1029 10 16 0.00 0.00
5:53 pm 17:53 Sunny 46 7.8 19 -7.2 34 34 NNW 9 15 30.39 1029 10 16 0.00 0.00
6:53 pm 18:53 Clear 44 6.7 20 -6.7 38 38 NNW 8 13 30.42 1030 10 16 0.00 0.00
7:53 pm 19:53 Clear 43 6.1 21 -6.1 42 42 NNW 12 19 30.42 1030 10 16 0.00 0.00
8:53 pm 20:53 Clear 43 6.1 20 -6.7 40 40 NNW 10 17 30.44 1031 10 16 0.00 0.00
9:53 pm 21:53 Clear 43 6.1 20 -6.7 40 40 NNW 6 9 30.46 1031 10 16 0.00 0.00
10:53 pm 22:53 Clear 42 5.6 21 -6.1 43 43 NNW 9 15 30.46 1031 10 16 0.00 0.00
11:53 pm 23:53 Clear 41 5 22 -5.6 47 47 NNW 9 15 30.50 1033 10 16 0.00 0.00

Powered by AerisWeather